Flag for India Weather past 2 weeks in Nagaur, Rajasthan, India

Now
75 °F

Passing clouds.


Feels Like: 78 °F
Forecast: 85 / 103 °F
Wind: No wind

Location: Jaipur / Sanganer


UV Index: 7 (High)

Visibility: 2 mi


Pressure: 29.83 "Hg

Humidity: 44%

Dew point: 52 °F

Location of NagaurLocation

Historic Weather in Nagaur

°F

Nagaur temperature yesterday

Maximum temperature yesterday: 93 °F (at 3:00 PM)
Minimum temperature yesterday: 70 °F (at 5:00 AM)
Average temperature yesterday: 85 °F

Past Weeks' High & Low Weather Summary

 TemperatureHumidityPressure
High100 °F (Apr 13, 2:00 PM)83% (Apr 19, 5:30 AM)30.04 "Hg (Apr 19, 5:30 AM)
Low68 °F (Apr 19, 8:00 AM)6% (Apr 12, 2:00 PM)29.53 "Hg (Apr 17, 2:00 PM)
Average84 °F31%29.88 "Hg
* Reported Apr 9 5:00 AM — Apr 24 5:00 AM, Nagaur, Weather by CustomWeather, © 2014

Note: Actual official high and low records may vary slightly from our data, if they occured in-between our weather recording intervals... More about our weather records

Advertising

Historic Weather Conditions — Data for Previous 24 hours

 ConditionsComfort  
Time TempWeatherWind HumidityBarometerVisibility
5:00 AM
Apr 24
77 °FHaze.No wind42%29.83 "Hg2 mi
4:00 AM81 °FHaze.No wind34%29.80 "Hg2 mi
3:00 AM82 °FHaze.3 mph32%29.83 "Hg2 mi
2:00 AM82 °FHaze.1 mph35%29.83 "Hg2 mi
1:00 AM79 °FHaze.No wind39%29.86 "Hg2 mi
12:00 AM82 °FHaze.No wind37%29.86 "Hg2 mi
11:00 PM
Apr 23
82 °FHaze.No wind37%29.86 "Hg2 mi
10:00 PM86 °FHaze.No wind29%29.86 "Hg2 mi
9:00 PM90 °FHaze.3 mph22%29.86 "Hg2 mi
8:00 PM90 °FHaze.3 mph22%29.83 "Hg2 mi
7:30 PM90 °FHaze.5 mph22%29.83 "Hg3 mi
7:00 PM91 °FHaze.6 mph21%29.83 "Hg3 mi
6:00 PM93 °FHaze.8 mph19%29.83 "Hg3 mi
5:00 PM93 °FHaze.10 mph20%29.83 "Hg3 mi
4:00 PM93 °FScattered clouds.5 mph20%29.83 "Hg3 mi
3:00 PM93 °FHaze.7 mph21%29.86 "Hg3 mi
2:00 PM91 °FHaze.3 mph24%29.89 "Hg2 mi
1:30 PM91 °FHaze.5 mph24%29.92 "Hg2 mi
1:00 PM91 °FHaze.6 mph24%29.95 "Hg2 mi
12:00 PM88 °FHaze.8 mph29%29.98 "Hg2 mi
11:00 AM86 °FHaze.7 mph33%29.98 "Hg2 mi
10:00 AM84 °FHaze.9 mph35%30.01 "Hg2 mi
9:00 AM81 °FHaze.6 mph39%29.98 "Hg2 mi
7:00 AM73 °FHaze.No wind53%29.95 "Hg1 mi
6:00 AM70 °FHaze.No wind69%29.95 "Hg1 mi
Weather by CustomWeather, © 2014

See weather overview